Location: Treviso
(45.6669°N, 12.2430°E)
Time: 05:53:43
(UTC+02:00)

ISS - Pass Details

Date: 20 October 2021
Orbit: 417 x 423 km, 51.6° (Epoch: 17 October)

Event Time Altitude Azimuth Distance (km) Brightness Sun altitude
Rises 06:57:27 0° 201° (SSW) 2,354 -0.1 -7.2°
Reaches altitude 10° 06:59:57 10° 182° (S) 1,494 -0.9 -6.7°
Maximum altitude 07:02:22 19° 136° (SE) 1,076 -0.9 -6.3°
Drops below altitude 10° 07:04:49 10° 89° (E) 1,499 0.8 -5.9°
Sets 07:07:19 0° 71° (ENE) 2,366 1.3 -5.4°
